"Period start","avg(HW err(1)/warn(2) (#))","avg(Visibility (m))","avg(Weather code (#))","avg(Precip intensity (mm/h))","min(HW err(1)/warn(2) (#))","max(HW err(1)/warn(2) (#))","std(HW err(1)/warn(2) (#))","med(HW err(1)/warn(2) (#))","min(Visibility (m))","max(Visibility (m))","std(Visibility (m))","med(Visibility (m))","min(Weather code (#))","max(Weather code (#))","std(Weather code (#))","med(Weather code (#))","min(Precip intensity (mm/h))","max(Precip intensity (mm/h))","std(Precip intensity (mm/h))","med(Precip intensity (mm/h))"
2016-10-08 00:00:00,2,46468,0,0.00,2,2,0,2,35089,50000,4562,48238,0,0,0,0,0.00,0.00,0.00,0.00
2016-10-08 00:10:00,2,37154,0,0.00,2,2,0,2,27153,47771,6343,34920,0,0,0,0,0.00,0.00,0.00,0.00
2016-10-08 00:20:00,2,25887,0,0.00,2,2,0,2,14336,36982,7344,24986,0,0,0,0,0.00,0.00,0.00,0.00
2016-10-08 00:30:00,2,39754,0,0.00,2,2,0,2,22723,50000,7314,41520,0,0,0,0,0.00,0.00,0.00,0.00
2016-10-08 00:40:00,2,47249,0,0.00,2,2,0,2,43582,50000,2031,47964,0,0,0,0,0.00,0.00,0.00,0.00
2016-10-08 00:50:00,2,49233,0,0.00,2,2,0,2,45056,50000,1493,50000,0,0,0,0,0.00,0.00,0.00,0.00
2016-10-08 01:00:00,2,45152,0,0.00,2,2,0,2,35477,50000,4687,46648,0,0,0,0,0.00,0.00,0.00,0.00
2016-10-08 01:10:00,2,28503,0,0.00,2,2,0,2,10492,43271,11913,29706,0,0,0,0,0.00,0.00,0.00,0.00
2016-10-08 01:20:00,2,7904,3,0.00,2,2,0,2,3481,13494,3689,8179,0,10,5,0,0.00,0.00,0.00,0.00
2016-10-08 01:30:00,2,5591,10,0.00,2,2,0,2,3297,7771,1247,5684,10,10,0,10,0.00,0.00,0.00,0.00
2016-10-08 01:40:00,2,5250,10,0.00,2,2,0,2,2720,6733,1112,5516,10,10,0,10,0.00,0.00,0.00,0.00
2016-10-08 01:50:00,2,5748,10,0.00,2,2,0,2,4471,7340,1050,5582,10,10,0,10,0.00,0.00,0.00,0.00
2016-10-08 02:00:00,2,8107,10,0.00,2,2,0,2,5588,9910,1264,8770,10,10,0,10,0.00,0.00,0.00,0.00
2016-10-08 02:10:00,2,10936,10,0.00,2,2,0,2,9660,13518,1184,10543,10,10,0,10,0.00,0.00,0.00,0.00
2016-10-08 02:20:00,2,10244,4,0.00,2,2,0,2,8597,12503,1139,10092,0,10,5,0,0.00,0.00,0.00,0.00
2016-10-08 02:30:00,2,6906,9,0.00,2,2,0,2,5554,8648,892,6864,0,10,3,10,0.00,0.00,0.00,0.00
2016-10-08 02:40:00,2,8144,10,0.00,2,2,0,2,6341,11139,1653,7179,10,10,0,10,0.00,0.00,0.00,0.00
2016-10-08 02:50:00,2,12522,9,0.00,2,2,0,2,9720,15358,1841,12277,0,10,3,10,0.00,0.00,0.00,0.00
2016-10-08 03:00:00,2,12923,0,0.00,2,2,0,2,9782,16588,2249,13092,0,0,0,0,0.00,0.00,0.00,0.00
2016-10-08 03:10:00,2,9453,0,0.00,2,2,0,2,7920,11508,1130,9364,0,0,0,0,0.00,0.00,0.00,0.00
2016-10-08 03:20:00,2,8768,9,0.00,2,2,0,2,7271,10805,1088,8520,0,10,3,10,0.00,0.00,0.00,0.00
2016-10-08 03:30:00,2,6221,10,0.00,2,2,0,2,4620,7846,1111,6202,10,10,0,10,0.00,0.00,0.00,0.00
2016-10-08 03:40:00,2,8204,10,0.00,2,2,0,2,4873,13907,3010,7454,10,10,0,10,0.00,0.00,0.00,0.00
2016-10-08 03:50:00,2,10229,10,0.00,2,2,0,2,6837,13212,1829,10672,10,10,0,10,0.00,0.00,0.00,0.00
2016-10-08 04:00:00,2,9949,10,0.00,2,2,0,2,6278,12586,1691,10184,10,10,0,10,0.00,0.00,0.00,0.00
2016-10-08 04:10:00,2,7136,10,0.00,2,2,0,2,3597,12656,2686,7062,10,10,0,10,0.00,0.00,0.00,0.00
2016-10-08 04:20:00,2,7933,10,0.00,2,2,0,2,4992,12542,2688,6234,10,10,0,10,0.00,0.00,0.00,0.00
2016-10-08 04:30:00,2,7571,10,0.00,2,2,0,2,5579,9668,1202,7594,10,10,0,10,0.00,0.00,0.00,0.00
2016-10-08 04:40:00,2,9796,10,0.00,2,2,0,2,7043,13362,2043,9667,10,10,0,10,0.00,0.00,0.00,0.00
2016-10-08 04:50:00,2,7911,10,0.00,2,2,0,2,5884,9603,1050,8010,10,10,0,10,0.00,0.00,0.00,0.00
2016-10-08 05:00:00,2,7391,10,0.00,2,2,0,2,5695,8827,952,7600,10,10,0,10,0.00,0.00,0.00,0.00
2016-10-08 05:10:00,2,7021,10,0.00,2,2,0,2,4973,9276,1231,7176,10,10,0,10,0.00,0.00,0.00,0.00
2016-10-08 05:20:00,2,8438,10,0.00,2,2,0,2,6647,10000,1197,8966,10,10,0,10,0.00,0.00,0.00,0.00
2016-10-08 05:30:00,2,6183,10,0.00,2,2,0,2,4881,8536,1200,5858,10,10,0,10,0.00,0.00,0.00,0.00
2016-10-08 05:40:00,2,6710,10,0.00,2,2,0,2,5320,9310,1059,6700,10,10,0,10,0.00,0.00,0.00,0.00
2016-10-08 05:50:00,2,6922,10,0.00,2,2,0,2,5466,8106,771,7080,10,10,0,10,0.00,0.00,0.00,0.00
2016-10-08 06:00:00,2,7106,10,0.00,2,2,0,2,6065,7976,631,6982,10,10,0,10,0.00,0.00,0.00,0.00
2016-10-08 06:10:00,2,6831,10,0.00,2,2,0,2,5719,8233,602,6772,10,10,0,10,0.00,0.00,0.00,0.00
2016-10-08 06:20:00,2,8292,10,0.00,2,2,0,2,6524,10236,1255,7956,10,10,0,10,0.00,0.00,0.00,0.00
2016-10-08 06:30:00,2,7657,10,0.00,2,2,0,2,6116,8687,788,7636,10,10,0,10,0.00,0.00,0.00,0.00
2016-10-08 06:40:00,2,7854,10,0.00,2,2,0,2,6314,9107,768,7800,10,10,0,10,0.00,0.00,0.00,0.00
2016-10-08 06:50:00,2,6229,10,0.00,2,2,0,2,5085,7618,847,5858,10,10,0,10,0.00,0.00,0.00,0.00
2016-10-08 07:00:00,2,5848,10,0.00,2,2,0,2,4587,7509,811,5918,10,10,0,10,0.00,0.00,0.00,0.00
2016-10-08 07:10:00,2,4686,10,0.00,2,2,0,2,3624,5504,639,4944,10,10,0,10,0.00,0.00,0.00,0.00
2016-10-08 07:20:00,2,5010,10,0.00,2,2,0,2,3649,6265,883,5382,10,10,0,10,0.00,0.00,0.00,0.00
2016-10-08 07:30:00,2,5818,19,0.00,2,2,0,2,4098,6606,836,6190,10,41,14,10,0.00,0.00,0.00,0.00
2016-10-08 07:40:00,2,6505,52,0.00,2,2,0,2,5093,8831,984,6488,10,77,29,71,0.00,0.00,0.00,0.00
2016-10-08 07:50:00,2,4705,10,0.00,2,2,0,2,3923,6217,755,4633,10,10,0,10,0.00,0.00,0.00,0.00
2016-10-08 08:00:00,2,5759,10,0.00,2,2,0,2,4138,8139,1312,5716,10,10,0,10,0.00,0.00,0.00,0.00
2016-10-08 08:10:00,2,5758,10,0.00,2,2,0,2,4562,7638,1015,5734,10,10,0,10,0.00,0.00,0.00,0.00
2016-10-08 08:20:00,2,4819,10,0.00,2,2,0,2,3223,6395,1074,4718,10,10,0,10,0.00,0.00,0.00,0.00
2016-10-08 08:30:00,2,2867,10,0.00,2,2,0,2,2147,5315,879,2658,10,10,0,10,0.00,0.00,0.00,0.00
2016-10-08 08:40:00,2,3619,10,0.00,2,2,0,2,2838,5444,720,3597,10,10,0,10,0.00,0.00,0.00,0.00
2016-10-08 08:50:00,2,5180,10,0.00,2,2,0,2,3264,7721,1610,4742,10,10,0,10,0.00,0.00,0.00,0.00
2016-10-08 09:00:00,2,4745,10,0.00,2,2,0,2,2659,6844,1529,5096,10,10,0,10,0.00,0.00,0.00,0.00
2016-10-08 09:10:00,2,5197,49,0.01,2,2,0,2,3029,7568,1582,5056,10,77,32,71,0.00,0.05,0.02,0.00
2016-10-08 09:20:00,2,6322,10,0.00,2,2,0,2,2710,8697,1895,7106,10,10,0,10,0.00,0.00,0.00,0.00
2016-10-08 09:30:00,2,2881,34,0.03,2,2,0,2,2121,3759,538,2909,10,54,20,41,0.00,0.10,0.03,0.03
2016-10-08 09:40:00,2,3948,54,0.02,2,2,0,2,3384,4584,417,3882,54,54,0,54,0.00,0.05,0.02,0.00
2016-10-08 09:50:00,2,2432,68,0.33,2,2,0,2,1997,3014,307,2397,54,77,10,71,0.05,0.65,0.20,0.28
2016-10-08 10:00:00,2,4540,77,0.04,2,2,0,2,3448,6627,944,4214,77,78,0,77,0.00,0.10,0.04,0.05
2016-10-08 10:10:00,2,7603,78,0.00,2,2,0,2,5067,13282,2411,6990,78,78,0,78,0.00,0.00,0.00,0.00
2016-10-08 10:20:00,2,7541,78,0.02,2,2,0,2,3241,16675,3767,7622,78,78,0,78,0.00,0.05,0.02,0.00
2016-10-08 10:30:00,2,5138,78,0.02,2,2,0,2,3386,7294,1055,5126,77,78,0,78,0.00,0.05,0.02,0.00
2016-10-08 10:40:00,2,5516,70,0.07,2,2,0,2,2738,9589,2604,4874,54,77,11,77,0.00,0.20,0.06,0.05
2016-10-08 10:50:00,2,2821,60,0.23,2,2,0,2,1905,3684,615,3048,54,77,9,54,0.05,0.75,0.26,0.05
2016-10-08 11:00:00,2,2181,77,0.42,2,2,0,2,1778,2511,248,2216,77,77,0,77,0.05,0.75,0.22,0.47
2016-10-08 11:10:00,2,1954,76,0.52,2,2,0,2,1714,2240,164,1930,71,77,2,77,0.40,0.65,0.07,0.50
2016-10-08 11:20:00,2,2856,76,0.12,2,2,0,2,2267,3683,414,2957,71,77,2,77,0.05,0.35,0.11,0.08
2016-10-08 11:30:00,2,3305,77,0.12,2,2,0,2,2814,4072,394,3238,77,77,0,77,0.05,0.25,0.06,0.12
2016-10-08 11:40:00,2,2936,67,0.20,2,2,0,2,2014,3697,512,2969,54,77,11,71,0.10,0.50,0.13,0.15
2016-10-08 11:50:00,2,4662,67,0.10,2,2,0,2,3466,5741,836,4715,54,77,11,71,0.00,0.35,0.10,0.05
2016-10-08 12:00:00,2,6928,77,0.04,2,2,0,2,5363,9063,1101,6806,77,77,0,77,0.00,0.10,0.04,0.05
2016-10-08 12:10:00,2,10654,77,0.01,2,2,0,2,8331,15160,1872,10581,77,78,0,77,0.00,0.05,0.02,0.00
2016-10-08 12:20:00,2,28100,77,0.00,2,2,0,2,16001,39879,9665,26414,77,78,0,77,0.00,0.00,0.00,0.00
2016-10-08 12:30:00,2,37246,0,0.00,2,2,0,2,23426,49964,7769,39230,0,0,0,0,0.00,0.00,0.00,0.00
2016-10-08 12:40:00,2,46224,0,0.00,2,2,0,2,28810,50000,6878,50000,0,0,0,0,0.00,0.00,0.00,0.00
2016-10-08 12:50:00,2,49816,0,0.00,2,2,0,2,48641,50000,417,50000,0,0,0,0,0.00,0.00,0.00,0.00
2016-10-08 13:00:00,2,20025,0,0.00,2,2,0,2,6215,49550,12868,20320,0,0,0,0,0.00,0.00,0.00,0.00
2016-10-08 13:10:00,2,6162,8,0.00,2,2,0,2,5166,7918,913,6068,0,10,4,10,0.00,0.00,0.00,0.00
2016-10-08 13:20:00,2,3133,10,0.00,2,2,0,2,2188,4217,552,3169,10,10,0,10,0.00,0.00,0.00,0.00
2016-10-08 13:30:00,2,2495,44,0.06,2,2,0,2,2073,3093,342,2422,10,77,29,54,0.00,0.25,0.07,0.05
2016-10-08 13:40:00,2,2552,54,0.36,2,2,0,2,2111,3497,348,2470,54,54,0,54,0.15,0.65,0.13,0.35
2016-10-08 13:50:00,2,2962,54,0.26,2,2,0,2,2438,3635,392,2936,54,54,0,54,0.20,0.40,0.07,0.25
2016-10-08 14:00:00,2,2915,54,0.86,2,2,0,2,2598,3289,218,2902,54,54,0,54,0.10,1.55,0.49,0.70
2016-10-08 14:10:00,2,3332,54,0.54,2,2,0,2,2793,3734,298,3436,54,54,0,54,0.20,1.30,0.33,0.40
2016-10-08 14:20:00,2,3670,49,0.41,2,2,0,2,3311,4234,308,3578,41,54,6,54,0.05,0.75,0.22,0.42
2016-10-08 14:30:00,2,2223,64,2.10,2,2,0,2,1424,3892,777,1992,41,74,15,72,0.40,4.05,1.21,2.28
2016-10-08 14:40:00,2,1519,41,8.90,2,2,0,2,1169,2285,336,1392,41,42,0,41,6.55,13.15,1.98,8.50
2016-10-08 14:50:00,2,1650,41,5.05,2,2,0,2,1327,2076,258,1557,41,41,0,41,2.25,6.90,1.62,5.85
2016-10-08 15:00:00,2,1852,59,3.00,2,2,0,2,1328,2692,405,1846,41,77,18,59,0.75,7.95,2.52,1.90
2016-10-08 15:10:00,2,3351,76,0.37,2,2,0,2,2096,5791,1034,3046,71,77,2,77,0.00,1.65,0.45,0.30
2016-10-08 15:20:00,2,9621,77,0.01,2,2,0,2,4702,15072,3354,9112,77,77,0,77,0.00,0.05,0.02,0.00
2016-10-08 15:30:00,2,33847,45,0.00,2,2,0,2,15754,50000,13295,33074,0,77,37,71,0.00,0.00,0.00,0.00
2016-10-08 15:40:00,2,43308,0,0.00,2,2,0,2,36236,50000,4439,43292,0,0,0,0,0.00,0.00,0.00,0.00
2016-10-08 15:50:00,2,44004,0,0.00,2,2,0,2,26956,50000,7917,48471,0,0,0,0,0.00,0.00,0.00,0.00
2016-10-08 16:00:00,2,33597,0,0.00,2,2,0,2,20056,50000,11127,33028,0,0,0,0,0.00,0.00,0.00,0.00
2016-10-08 16:10:00,2,30259,37,0.05,2,2,0,2,17551,41083,8187,32455,0,41,12,41,0.00,0.10,0.04,0.05
2016-10-08 16:20:00,2,44714,33,0.04,2,2,0,2,35626,50000,5487,45988,0,41,16,41,0.00,0.10,0.04,0.03
2016-10-08 16:30:00,2,44825,0,0.00,2,2,0,2,28777,50000,6882,48908,0,0,0,0,0.00,0.00,0.00,0.00
2016-10-08 16:40:00,2,34704,0,0.00,2,2,0,2,21825,50000,9528,34560,0,0,0,0,0.00,0.00,0.00,0.00
2016-10-08 16:50:00,2,43451,0,0.00,2,2,0,2,35791,50000,4173,43464,0,0,0,0,0.00,0.00,0.00,0.00
2016-10-08 17:00:00,2,42683,0,0.00,2,2,0,2,33314,50000,5495,43396,0,0,0,0,0.00,0.00,0.00,0.00
2016-10-08 17:10:00,2,30770,0,0.00,2,2,0,2,20665,47948,6950,29756,0,0,0,0,0.00,0.00,0.00,0.00
2016-10-08 17:20:00,2,30359,0,0.00,2,2,0,2,22912,41128,5233,30082,0,0,0,0,0.00,0.00,0.00,0.00
2016-10-08 17:30:00,2,44851,0,0.00,2,2,0,2,39786,50000,3671,44587,0,0,0,0,0.00,0.00,0.00,0.00
2016-10-08 17:40:00,2,40559,0,0.00,2,2,0,2,29939,50000,6226,39546,0,0,0,0,0.00,0.00,0.00,0.00
2016-10-08 17:50:00,2,45917,0,0.00,2,2,0,2,38069,50000,3646,45102,0,0,0,0,0.00,0.00,0.00,0.00
2016-10-08 18:00:00,2,23587,0,0.00,2,2,0,2,8557,42152,12686,21075,0,0,0,0,0.00,0.00,0.00,0.00
2016-10-08 18:10:00,2,7449,5,0.00,2,2,0,2,6253,8381,674,7434,0,10,5,5,0.00,0.00,0.00,0.00
2016-10-08 18:20:00,2,9597,10,0.00,2,2,0,2,8212,10821,876,9755,10,10,0,10,0.00,0.00,0.00,0.00
2016-10-08 18:30:00,2,13283,10,0.00,2,2,0,2,9283,17230,3100,13894,10,10,0,10,0.00,0.00,0.00,0.00
2016-10-08 18:40:00,2,19265,0,0.00,2,2,0,2,15032,27835,3512,17855,0,0,0,0,0.00,0.00,0.00,0.00
2016-10-08 18:50:00,2,11034,0,0.00,2,2,0,2,7168,15780,2176,10652,0,0,0,0,0.00,0.00,0.00,0.00
2016-10-08 19:00:00,2,23635,0,0.00,2,2,0,2,11471,36297,8893,22648,0,0,0,0,0.00,0.00,0.00,0.00
2016-10-08 19:10:00,2,25789,0,0.00,2,2,0,2,10183,46772,13969,23943,0,0,0,0,0.00,0.00,0.00,0.00
2016-10-08 19:20:00,2,8990,1,0.00,2,2,0,2,6812,9880,787,9180,0,10,3,0,0.00,0.00,0.00,0.00
2016-10-08 19:30:00,2,16987,8,0.00,2,2,0,2,11043,33569,6408,14906,0,10,4,10,0.00,0.00,0.00,0.00
2016-10-08 19:40:00,2,37266,0,0.00,2,2,0,2,24941,49908,9504,37117,0,0,0,0,0.00,0.00,0.00,0.00
2016-10-08 19:50:00,2,46194,0,0.00,2,2,0,2,29592,50000,6002,48780,0,0,0,0,0.00,0.00,0.00,0.00
2016-10-08 20:00:00,2,33619,0,0.00,2,2,0,2,22487,40018,4543,34634,0,0,0,0,0.00,0.00,0.00,0.00
2016-10-08 20:10:00,2,38929,0,0.00,2,2,0,2,25710,50000,8300,40674,0,0,0,0,0.00,0.00,0.00,0.00
2016-10-08 20:20:00,2,50000,0,0.00,2,2,0,2,50000,50000,0,50000,0,0,0,0,0.00,0.00,0.00,0.00
2016-10-08 20:30:00,2,50000,0,0.00,2,2,0,2,50000,50000,0,50000,0,0,0,0,0.00,0.00,0.00,0.00
2016-10-08 20:40:00,2,50000,0,0.00,2,2,0,2,50000,50000,0,50000,0,0,0,0,0.00,0.00,0.00,0.00
2016-10-08 20:50:00,2,50000,0,0.00,2,2,0,2,50000,50000,0,50000,0,0,0,0,0.00,0.00,0.00,0.00
2016-10-08 21:00:00,2,47684,0,0.00,2,2,0,2,28564,50000,6394,50000,0,0,0,0,0.00,0.00,0.00,0.00
2016-10-08 21:10:00,2,11206,0,0.00,2,2,0,2,8699,22444,3928,9884,0,0,0,0,0.00,0.00,0.00,0.00
2016-10-08 21:20:00,2,8099,8,0.00,2,2,0,2,6349,10429,1255,7903,0,10,4,10,0.00,0.00,0.00,0.00
2016-10-08 21:30:00,2,7330,10,0.00,2,2,0,2,5100,13251,2745,5958,10,10,0,10,0.00,0.00,0.00,0.00
2016-10-08 21:40:00,2,8537,10,0.00,2,2,0,2,6481,10998,1240,8364,10,10,0,10,0.00,0.00,0.00,0.00
2016-10-08 21:50:00,2,5661,10,0.00,2,2,0,2,3981,8432,1378,5154,10,10,0,10,0.00,0.00,0.00,0.00
2016-10-08 22:00:00,2,13978,10,0.00,2,2,0,2,8000,23164,4757,13451,10,10,0,10,0.00,0.00,0.00,0.00
2016-10-08 22:10:00,2,40723,1,0.00,2,2,0,2,20441,50000,8795,43666,0,10,3,0,0.00,0.00,0.00,0.00
2016-10-08 22:20:00,2,18548,0,0.00,2,2,0,2,4282,50000,15732,10960,0,0,0,0,0.00,0.00,0.00,0.00
2016-10-08 22:30:00,2,3374,10,0.00,2,2,0,2,2605,4692,655,3318,10,10,0,10,0.00,0.00,0.00,0.00
2016-10-08 22:40:00,2,2304,31,0.35,2,2,0,2,1645,2918,474,2332,10,54,18,41,0.00,0.85,0.32,0.35
2016-10-08 22:50:00,2,1653,54,0.88,2,2,0,2,1564,1797,63,1645,54,54,0,54,0.30,1.75,0.48,0.78
2016-10-08 23:00:00,2,1753,54,0.72,2,2,0,2,1392,1904,133,1789,54,54,0,54,0.40,1.05,0.21,0.68
2016-10-08 23:10:00,2,1601,54,1.01,2,2,0,2,1390,2029,195,1510,54,54,0,54,0.50,2.40,0.59,0.75
2016-10-08 23:20:00,2,3280,54,0.42,2,2,0,2,2010,5211,1056,3060,54,54,0,54,0.20,0.70,0.16,0.43
2016-10-08 23:30:00,2,5051,50,0.09,2,2,0,2,3192,9530,2035,4038,10,54,13,54,0.00,0.25,0.09,0.10
2016-10-08 23:40:00,2,16237,19,0.02,2,2,0,2,4779,30080,8782,13230,10,40,14,10,0.00,0.15,0.05,0.00
2016-10-08 23:50:00,2,3455,73,0.34,2,2,0,2,2532,5080,861,3301,71,77,3,71,0.15,0.55,0.11,0.33
